﻿_id,日時,平均風速(m/s),平均風向,最大瞬間風速(m/s),最大風速時風向,気温(℃),湿度(%),10分間移動積算雨量(mm),1時間移動積算雨量(mm),日雨量(mm),累計雨量(mm)
1,2024-01-01T00:00:00,6.4,北北西,12.1,北西,7.1,81.8,0,0.5,10.5,10.5
2,2024-01-01T00:01:00,6.5,北北西,12.1,北西,7.1,81.4,0,0.5,0,10.5
3,2024-01-01T00:02:00,6.8,北西,15.2,北,7,81.7,0,0.5,0,10.5
4,2024-01-01T00:03:00,7.2,北西,15.2,北,7,81.5,0,0.5,0,10.5
5,2024-01-01T00:04:00,7.2,北西,15.2,北,7,80.6,0,0.5,0,10.5
6,2024-01-01T00:05:00,7.2,北西,15.2,北,7,80.7,0,0.5,0,10.5
7,2024-01-01T00:06:00,7.2,北西,15.2,北,6.9,82,0,0.5,0,10.5
8,2024-01-01T00:07:00,7,北西,15.2,北,6.9,82,0,0.5,0,10.5
9,2024-01-01T00:08:00,7.1,北西,15.2,北,6.8,81.6,0,0.5,0,10.5
10,2024-01-01T00:09:00,6.8,北西,15.2,北,6.8,82.1,0,0.5,0,10.5
11,2024-01-01T00:10:00,6.3,北西,15.2,北,6.7,82.8,0,0.5,0,10.5
12,2024-01-01T00:11:00,6.1,北西,15.2,北,6.7,83.6,0,0.5,0,10.5
13,2024-01-01T00:12:00,5.8,北西,12.4,北北西,6.6,83.9,0,0.5,0,10.5
14,2024-01-01T00:13:00,5.7,北西,10.7,西北西,6.9,81.8,0,0.5,0,10.5
15,2024-01-01T00:14:00,5.7,北西,10.7,西北西,6.9,82,0,0.5,0,10.5
16,2024-01-01T00:15:00,5.8,北西,10.7,西北西,6.9,81.6,0,0.5,0,10.5
17,2024-01-01T00:16:00,5.8,北西,10.7,西北西,6.8,82.6,0,0.5,0,10.5
18,2024-01-01T00:17:00,5.6,北西,10.7,西北西,6.7,83.5,0,0.5,0,10.5
19,2024-01-01T00:18:00,5.5,北西,10.7,西北西,6.7,84.4,0,0.5,0,10.5
20,2024-01-01T00:19:00,5.5,北西,10.7,西北西,6.6,85,0,0.5,0,10.5
21,2024-01-01T00:20:00,5.5,北西,10.7,西北西,6.8,83.3,0,0.5,0,10.5
22,2024-01-01T00:21:00,5.5,北西,10.7,西北西,6.7,84.7,0,0.5,0,10.5
23,2024-01-01T00:22:00,5.4,北西,10.7,西北西,6.6,85.5,0,0.5,0,10.5
24,2024-01-01T00:23:00,5.1,北西,9,北西,6.5,86.9,0,0.5,0,10.5
25,2024-01-01T00:24:00,5,北北西,8.9,北西,6.6,86.5,0,0.5,0,10.5
26,2024-01-01T00:25:00,5.1,北北西,8.9,北西,6.6,85.6,0,0.5,0,10.5
27,2024-01-01T00:26:00,5.1,北北西,8.9,北西,6.5,86.4,0,0.5,0,10.5
28,2024-01-01T00:27:00,5,北北西,8.9,北西,6.4,87.8,0,0.5,0,10.5
29,2024-01-01T00:28:00,5,北北西,9.1,北北西,6.4,88.4,0,0.5,0,10.5
30,2024-01-01T00:29:00,5.1,北北西,9.3,北北西,6.5,86.6,0,0.5,0,10.5
31,2024-01-01T00:30:00,5.2,北北西,10.3,北,6.6,86,0,0.5,0,10.5
32,2024-01-01T00:31:00,5.4,北北西,10.3,北,6.6,85,0,0.5,0,10.5
33,2024-01-01T00:32:00,5.4,北北西,10.3,北,6.5,86,0,0.5,0,10.5
34,2024-01-01T00:33:00,5.5,北北西,10.3,北,6.6,85.3,0,0.5,0,10.5
35,2024-01-01T00:34:00,5.4,北北西,10.3,北,6.6,84.9,0,0.5,0,10.5
36,2024-01-01T00:35:00,5.3,北北西,10.3,北,6.6,84,0,0.5,0,10.5
37,2024-01-01T00:36:00,5.3,北北西,10.3,北,6.7,82.8,0,0.5,0,10.5
38,2024-01-01T00:37:00,5.4,北北西,10.3,北,6.7,82,0,0.5,0,10.5
39,2024-01-01T00:38:00,5.3,北北西,10.3,北,6.7,82.7,0,0.5,0,10.5
40,2024-01-01T00:39:00,5.2,北北西,10.3,北,6.7,81.6,0,0.5,0,10.5
41,2024-01-01T00:40:00,5.1,北北西,9.3,北北西,6.6,83.1,0,0.5,0,10.5
42,2024-01-01T00:41:00,5,北西,9,西北西,6.6,82.2,0,0.5,0,10.5
43,2024-01-01T00:42:00,4.9,北西,9,西北西,6.6,82.2,0,0.5,0,10.5
44,2024-01-01T00:43:00,4.6,北西,9,西北西,6.6,82.9,0,0.5,0,10.5
45,2024-01-01T00:44:00,4.8,北西,10.3,北北西,6.5,84.3,0,0.5,0,10.5
46,2024-01-01T00:45:00,4.8,北西,10.3,北北西,6.5,83.6,0,0.5,0,10.5
47,2024-01-01T00:46:00,4.7,北西,10.3,北北西,6.5,83.6,0,0.5,0,10.5
48,2024-01-01T00:47:00,4.6,北西,10.3,北北西,6.6,82.7,0,0,0,10.5
49,2024-01-01T00:48:00,4.6,北西,10.3,北北西,6.5,83.5,0,0,0,10.5
50,2024-01-01T00:49:00,4.6,北西,10.3,北北西,6.5,83.5,0,0,0,10.5
51,2024-01-01T00:50:00,4.8,北西,10.3,北北西,6.7,81.9,0.5,0.5,0.5,11
52,2024-01-01T00:51:00,4.8,北西,10.3,北北西,6.6,82.1,0.5,0.5,0.5,11
53,2024-01-01T00:52:00,4.9,北西,10.3,北北西,6.5,83.2,0.5,0.5,0.5,11
54,2024-01-01T00:53:00,5,北西,10.3,北北西,6.5,83.3,0.5,0.5,0.5,11
55,2024-01-01T00:54:00,4.9,北西,9.4,西北西,6.5,83.6,0.5,0.5,0.5,11
56,2024-01-01T00:55:00,4.9,北西,9.4,西北西,6.5,83.8,0.5,0.5,0.5,11
57,2024-01-01T00:56:00,5.1,北西,9.4,西北西,6.5,83.1,0.5,0.5,0.5,11
58,2024-01-01T00:57:00,5.1,北西,9.4,西北西,6.5,83.5,0.5,0.5,0.5,11
59,2024-01-01T00:58:00,5.2,北西,9.4,西北西,6.4,85.1,0.5,0.5,0.5,11
60,2024-01-01T00:59:00,5.3,北西,9.4,西北西,6.3,85.5,0.5,0.5,0.5,11
61,2024-01-01T01:00:00,5.2,北西,8.2,北西,6.3,86.5,0,0.5,0.5,11
62,2024-01-01T01:01:00,5.2,北西,8.2,北西,6.2,87.4,0,0.5,0.5,11
63,2024-01-01T01:02:00,5.3,北西,8.2,北西,6.2,86.6,0,0.5,0.5,11
64,2024-01-01T01:03:00,5.4,北北西,8.5,北北西,6.3,86.3,0,0.5,0.5,11
65,2024-01-01T01:04:00,5.4,北北西,9.5,北,6.3,85.6,0,0.5,0.5,11
66,2024-01-01T01:05:00,5.4,北北西,9.5,北,6.3,86.4,0,0.5,0.5,11
67,2024-01-01T01:06:00,5.4,北北西,9.5,北,6.2,86.7,0,0.5,0.5,11
68,2024-01-01T01:07:00,5.4,北北西,9.5,北,6.2,86.1,0,0.5,0.5,11
69,2024-01-01T01:08:00,5.4,北西,9.5,北,6.3,84.6,0,0.5,0.5,11
70,2024-01-01T01:09:00,5.4,北西,9.7,北北西,6.4,83.6,0,0.5,0.5,11
71,2024-01-01T01:10:00,5.5,北西,9.7,北北西,6.3,83.5,0,0.5,0.5,11
72,2024-01-01T01:11:00,5.4,北西,9.7,北北西,6.3,83.9,0,0.5,0.5,11
73,2024-01-01T01:12:00,5.2,北西,9.7,北北西,6.3,83.8,0,0.5,0.5,11
74,2024-01-01T01:13:00,5.1,北西,9.7,北北西,6.2,84.2,0,0.5,0.5,11
75,2024-01-01T01:14:00,5,北西,9.7,北北西,6.2,84.8,0,0.5,0.5,11
76,2024-01-01T01:15:00,4.9,北西,9.7,北北西,6.2,84.3,0,0.5,0.5,11
77,2024-01-01T01:16:00,4.9,北西,9.7,北北西,6.3,83.6,0,0.5,0.5,11
78,2024-01-01T01:17:00,4.8,北西,9.7,北北西,6.3,83.2,0,0.5,0.5,11
79,2024-01-01T01:18:00,4.9,北西,9.7,北北西,6.3,83,0,0.5,0.5,11
80,2024-01-01T01:19:00,4.7,北西,8.7,北西,6.3,83.2,0,0.5,0.5,11
81,2024-01-01T01:20:00,4.5,北西,7.5,北西,6.2,84,0,0.5,0.5,11
82,2024-01-01T01:21:00,4.3,北西,7.5,北西,6.2,84.6,0,0.5,0.5,11
83,2024-01-01T01:22:00,4.4,北西,8,西北西,6.2,84.9,0,0.5,0.5,11
84,2024-01-01T01:23:00,4.5,北西,8,西北西,6.2,85.1,0,0.5,0.5,11
85,2024-01-01T01:24:00,4.5,北西,8.4,北北西,6.3,84.4,0,0.5,0.5,11
86,2024-01-01T01:25:00,4.4,北西,8.4,北北西,6.3,84.4,0,0.5,0.5,11
87,2024-01-01T01:26:00,4.4,北西,8.4,北北西,6.3,84.2,0,0.5,0.5,11
88,2024-01-01T01:27:00,4.4,北西,8.4,北北西,6.4,82.9,0,0.5,0.5,11
89,2024-01-01T01:28:00,4.3,北西,8.4,北北西,6.3,83.4,0,0.5,0.5,11
90,2024-01-01T01:29:00,4.3,北西,8.4,北北西,6.2,84.5,0,0.5,0.5,11
91,2024-01-01T01:30:00,4.4,北西,8.4,北北西,6.3,83.1,0,0.5,0.5,11
92,2024-01-01T01:31:00,4.6,北西,8.4,北北西,6.4,82.5,0,0.5,0.5,11
93,2024-01-01T01:32:00,4.7,北西,8.4,北北西,6.3,83.9,0,0.5,0.5,11
94,2024-01-01T01:33:00,4.6,北西,8.4,北北西,6.3,83.6,0,0.5,0.5,11
95,2024-01-01T01:34:00,4.5,北西,7.9,北北西,6.3,83.5,0,0.5,0.5,11
96,2024-01-01T01:35:00,4.6,北西,7.9,北北西,6.3,83.4,0,0.5,0.5,11
97,2024-01-01T01:36:00,4.6,北西,7.8,北西,6.3,82.8,0,0.5,0.5,11
98,2024-01-01T01:37:00,4.6,北西,7.8,北西,6.4,82.6,0,0.5,0.5,11
99,2024-01-01T01:38:00,4.6,北西,8.3,北北西,6.3,83.2,0,0.5,0.5,11
100,2024-01-01T01:39:00,4.7,北西,8.3,北北西,6.3,83.4,0,0.5,0.5,11
101,2024-01-01T01:40:00,4.6,北西,8.3,北北西,6.4,82.5,0,0.5,0.5,11
102,2024-01-01T01:41:00,4.4,北西,8.3,北北西,6.3,83.8,0,0.5,0.5,11
103,2024-01-01T01:42:00,4.4,北西,8.3,北北西,6.2,85.3,0,0.5,0.5,11
104,2024-01-01T01:43:00,4.4,北西,8.3,北北西,6.2,85.3,0,0.5,0.5,11
105,2024-01-01T01:44:00,4.4,北西,8.3,北北西,6.2,85,0.5,1,1,11.5
106,2024-01-01T01:45:00,4.3,北西,8.3,北北西,6.2,85.4,0.5,1,1,11.5
107,2024-01-01T01:46:00,4.1,北西,8.3,北北西,6.1,86.5,0.5,1,1,11.5
108,2024-01-01T01:47:00,4,北西,8.3,北北西,6,86.5,0.5,1,1,11.5
109,2024-01-01T01:48:00,4.1,北西,8.1,北北西,6.2,85.4,0.5,1,1,11.5
110,2024-01-01T01:49:00,4.1,北西,8.1,西北西,6.1,85.7,0.5,1,1,11.5
111,2024-01-01T01:50:00,4.3,北西,8.1,西北西,6.3,82.5,0.5,0.5,1,11.5
112,2024-01-01T01:51:00,4.5,北西,8.1,西北西,6.3,82.1,0.5,0.5,1,11.5
113,2024-01-01T01:52:00,4.7,北西,8.6,北北西,6.3,81.8,0.5,0.5,1,11.5
114,2024-01-01T01:53:00,4.6,北西,8.6,北北西,6.2,83.5,0.5,0.5,1,11.5
115,2024-01-01T01:54:00,4.8,北西,8.6,北北西,6.2,81.7,0,0.5,1,11.5
116,2024-01-01T01:55:00,4.9,北西,8.6,北北西,6.2,82.3,0,0.5,1,11.5
117,2024-01-01T01:56:00,5,北西,8.6,北北西,6.1,83,0,0.5,1,11.5
118,2024-01-01T01:57:00,5.2,北西,8.6,北北西,6,84.3,0,0.5,1,11.5
119,2024-01-01T01:58:00,5.1,北西,8.6,北北西,6.1,83,0,0.5,1,11.5
120,2024-01-01T01:59:00,4.9,北西,8.6,北北西,6.1,82.4,0,0.5,1,11.5
121,2024-01-01T02:00:00,4.8,北西,8.6,北北西,6.1,82.7,0,0.5,1,11.5
122,2024-01-01T02:01:00,4.7,北西,8.6,北北西,6,83,0,0.5,1,11.5
123,2024-01-01T02:02:00,4.5,北西,8.3,北西,6,84.1,0,0.5,1,11.5
124,2024-01-01T02:03:00,4.6,北西,9.7,西北西,5.9,84.3,0,0.5,1,11.5
125,2024-01-01T02:04:00,4.6,北西,9.7,西北西,6,82.4,0,0.5,1,11.5
126,2024-01-01T02:05:00,4.6,北西,9.7,西北西,5.9,84.1,0,0.5,1,11.5
127,2024-01-01T02:06:00,4.5,北西,9.7,西北西,5.9,85.1,0,0.5,1,11.5
128,2024-01-01T02:07:00,4.3,北西,9.7,西北西,5.8,85.6,0,0.5,1,11.5
129,2024-01-01T02:08:00,4.3,北西,9.7,西北西,5.7,85.6,0,0.5,1,11.5
130,2024-01-01T02:09:00,4.5,北西,9.7,西北西,5.7,85.2,0,0.5,1,11.5
131,2024-01-01T02:10:00,4.5,北西,9.7,西北西,5.7,85.1,0,0.5,1,11.5
132,2024-01-01T02:11:00,4.4,北西,9.7,西北西,5.8,84.7,0,0.5,1,11.5
133,2024-01-01T02:12:00,4.4,北西,9.7,西北西,5.8,84.7,0,0.5,1,11.5
134,2024-01-01T02:13:00,4.2,北西,7.6,北西,5.7,85.8,0,0.5,1,11.5
135,2024-01-01T02:14:00,4.1,北西,6.7,北西,5.7,85.9,0,0.5,1,11.5
136,2024-01-01T02:15:00,4,北西,6.7,北西,5.7,85.3,0,0.5,1,11.5
137,2024-01-01T02:16:00,4.2,北西,6.7,北西,5.7,85.2,0,0.5,1,11.5
138,2024-01-01T02:17:00,4.2,北西,6.7,北西,5.7,85.6,0,0.5,1,11.5
139,2024-01-01T02:18:00,4.1,北西,6.7,北西,5.6,86.5,0,0.5,1,11.5
140,2024-01-01T02:19:00,4,北西,6.4,北西,5.5,87.5,0,0.5,1,11.5
141,2024-01-01T02:20:00,3.9,北西,6.4,北西,5.6,87.5,0,0.5,1,11.5
142,2024-01-01T02:21:00,3.8,北西,6.4,北西,5.6,87.4,0,0.5,1,11.5
143,2024-01-01T02:22:00,3.7,北西,6.4,北西,5.5,87.6,0,0.5,1,11.5
144,2024-01-01T02:23:00,3.8,北西,6.4,北西,5.5,88.2,0,0.5,1,11.5
145,2024-01-01T02:24:00,3.8,北西,6.4,北西,5.5,89,0.5,1,1.5,12
146,2024-01-01T02:25:00,3.8,北西,6.4,北西,5.5,88.6,0.5,1,1.5,12
147,2024-01-01T02:26:00,3.5,北西,5.9,北西,5.4,88.9,0.5,1,1.5,12
148,2024-01-01T02:27:00,3.5,北西,5.9,北西,5.4,89.6,0.5,1,1.5,12
149,2024-01-01T02:28:00,3.6,北西,5.9,北西,5.3,90,0.5,1,1.5,12
150,2024-01-01T02:29:00,3.7,北西,5.9,北西,5.4,89.6,0.5,1,1.5,12
151,2024-01-01T02:30:00,3.8,北西,7.1,北北西,5.5,88.2,0.5,1,1.5,12
152,2024-01-01T02:31:00,4,北西,7.1,北北西,5.6,86.4,0.5,1,1.5,12
153,2024-01-01T02:32:00,3.9,北西,7.1,北北西,5.5,86.5,1,1.5,2,12.5
154,2024-01-01T02:33:00,3.9,北西,7.1,北北西,5.4,87,1,1.5,2,12.5
155,2024-01-01T02:34:00,4,北西,7.1,北北西,5.4,87.5,0.5,1.5,2,12.5
156,2024-01-01T02:35:00,4,北西,7.1,北北西,5.4,87.2,0.5,1.5,2,12.5
157,2024-01-01T02:36:00,4.1,北西,7.1,北北西,5.5,86.5,0.5,1.5,2,12.5
158,2024-01-01T02:37:00,4.1,北西,7.1,北北西,5.5,86.6,0.5,1.5,2,12.5
159,2024-01-01T02:38:00,3.9,北西,7.1,北北西,5.5,86.8,0.5,1.5,2,12.5
160,2024-01-01T02:39:00,3.9,北西,7.1,北北西,5.5,86.4,0.5,1.5,2,12.5
161,2024-01-01T02:40:00,3.7,北西,7,北北西,5.4,87.2,0.5,1.5,2,12.5
162,2024-01-01T02:41:00,3.5,北西,5.6,北西,5.4,87.1,0.5,1.5,2,12.5
163,2024-01-01T02:42:00,3.5,北西,5.6,北西,5.4,87.4,0,1.5,2,12.5
164,2024-01-01T02:43:00,3.5,北西,6.4,北西,5.5,86.9,0,1.5,2,12.5
165,2024-01-01T02:44:00,3.5,北西,6.4,北西,5.5,86.5,0,1,2,12.5
166,2024-01-01T02:45:00,3.5,北西,6.4,北西,5.5,86.4,0,1,2,12.5
167,2024-01-01T02:46:00,3.5,西北西,6.4,北西,5.5,86.1,0,1,2,12.5
168,2024-01-01T02:47:00,3.4,西北西,6.4,北西,5.4,86.8,0.5,1.5,2.5,13
169,2024-01-01T02:48:00,3.3,北西,6.4,北西,5.4,87.7,0.5,1.5,2.5,13
170,2024-01-01T02:49:00,3.2,西北西,6.4,北西,5.3,88.1,0.5,1.5,2.5,13
171,2024-01-01T02:50:00,3.1,西北西,6.4,北西,5.3,88.6,0.5,1.5,2.5,13
172,2024-01-01T02:51:00,3.1,西北西,6.4,北西,5.4,88,0.5,1.5,2.5,13
173,2024-01-01T02:52:00,3.3,西北西,7.3,北西,5.5,86.2,0.5,1.5,2.5,13
174,2024-01-01T02:53:00,3.3,西北西,7.3,北西,5.6,86.4,0.5,1.5,2.5,13
175,2024-01-01T02:54:00,3.2,北西,7.3,北西,5.5,86.5,0.5,1.5,2.5,13
176,2024-01-01T02:55:00,3.2,北西,7.3,北西,5.5,86.9,0.5,1.5,2.5,13
177,2024-01-01T02:56:00,3.4,北西,7.3,北西,5.4,87.6,0.5,1.5,2.5,13
178,2024-01-01T02:57:00,3.6,北西,7.3,北西,5.3,88.6,0,1.5,2.5,13
179,2024-01-01T02:58:00,3.7,北西,7.3,北西,5.3,88.1,0,1.5,2.5,13
180,2024-01-01T02:59:00,4,北西,7.3,北西,5.4,87,0,1.5,2.5,13
181,2024-01-01T03:00:00,4.1,北西,7.3,北西,5.4,87.4,0,1.5,2.5,13
182,2024-01-01T03:01:00,4.2,北西,7.3,北西,5.3,88.5,0,1.5,2.5,13
183,2024-01-01T03:02:00,4,北西,6.7,北西,5.2,89.1,0,1.5,2.5,13
184,2024-01-01T03:03:00,3.8,北西,6.3,北西,5.2,89.1,0,1.5,2.5,13
185,2024-01-01T03:04:00,3.8,北西,6.3,北西,5.4,88.2,0,1.5,2.5,13
186,2024-01-01T03:05:00,3.9,北西,6.3,北西,5.3,87.8,0,1.5,2.5,13
187,2024-01-01T03:06:00,3.8,北西,5.7,北北西,5.4,87.5,0,1.5,2.5,13
188,2024-01-01T03:07:00,3.8,北西,5.7,北北西,5.5,85.5,0,1.5,2.5,13
189,2024-01-01T03:08:00,3.7,北西,5.7,北北西,5.5,85.5,0,1.5,2.5,13
190,2024-01-01T03:09:00,3.7,北西,6,西北西,5.5,86.2,0,1.5,2.5,13
191,2024-01-01T03:10:00,3.8,北西,6,西北西,5.5,85.9,0,1.5,2.5,13
192,2024-01-01T03:11:00,3.8,北西,6.3,北西,5.5,86,0,1.5,2.5,13
193,2024-01-01T03:12:00,3.9,北西,6.3,北西,5.5,85.8,0,1.5,2.5,13
194,2024-01-01T03:13:00,3.9,北西,6.3,北西,5.5,85.8,0,1.5,2.5,13
195,2024-01-01T03:14:00,4,北西,6.3,北西,5.4,86,0,1.5,2.5,13
196,2024-01-01T03:15:00,4,北西,6.3,北西,5.4,86.3,0,1.5,2.5,13
197,2024-01-01T03:16:00,3.8,北西,6.3,北西,5.4,86.7,0,1.5,2.5,13
198,2024-01-01T03:17:00,3.6,北西,6.3,北西,5.4,86.6,0,1.5,2.5,13
199,2024-01-01T03:18:00,3.7,北西,6.3,北西,5.4,87.1,0,1.5,2.5,13
200,2024-01-01T03:19:00,3.5,北西,6.3,北西,5.4,86.6,0,1.5,2.5,13
201,2024-01-01T03:20:00,3.3,北西,6.3,北西,5.3,88.4,0,1.5,2.5,13
202,2024-01-01T03:21:00,3.1,北西,5.9,北北西,5.3,90.1,0,1.5,2.5,13
203,2024-01-01T03:22:00,3,北西,5.2,西北西,5.2,91.3,0,1.5,2.5,13
204,2024-01-01T03:23:00,2.9,北北西,5.2,西北西,5.1,92.1,0.5,2,3,13.5
205,2024-01-01T03:24:00,2.8,北北西,5,北北西,5.1,92.6,0.5,1.5,3,13.5
206,2024-01-01T03:25:00,2.7,北北西,4.4,北西,5.1,92.1,0.5,1.5,3,13.5
207,2024-01-01T03:26:00,2.8,北北西,4.4,北西,5.1,92.5,0.5,1.5,3,13.5
208,2024-01-01T03:27:00,2.9,北北西,4.7,北北西,5.1,92.6,0.5,1.5,3,13.5
209,2024-01-01T03:28:00,2.9,北北西,4.7,北北西,5.1,92.2,0.5,1.5,3,13.5
210,2024-01-01T03:29:00,2.9,北北西,4.7,北北西,5.1,92.1,0.5,1.5,3,13.5
211,2024-01-01T03:30:00,3.1,北北西,5,北西,5.2,91.8,0.5,1.5,3,13.5
212,2024-01-01T03:31:00,3.3,北北西,7.1,西北西,5.2,90.5,0.5,1.5,3,13.5
213,2024-01-01T03:32:00,3.5,北北西,7.1,西北西,5.3,88.7,1,1.5,3.5,14
214,2024-01-01T03:33:00,3.6,北西,7.1,西北西,5.4,87.7,0.5,1.5,3.5,14
215,2024-01-01T03:34:00,3.8,北西,7.1,西北西,5.4,86.9,0.5,1.5,3.5,14
216,2024-01-01T03:35:00,3.9,北西,7.1,西北西,5.4,86.4,0.5,1.5,3.5,14
217,2024-01-01T03:36:00,4,北西,7.1,西北西,5.3,86.8,0.5,1.5,3.5,14
218,2024-01-01T03:37:00,4.1,北西,7.1,西北西,5.3,86.9,0.5,1.5,3.5,14
219,2024-01-01T03:38:00,4.1,北西,7.1,西北西,5.3,86.9,0.5,1.5,3.5,14
220,2024-01-01T03:39:00,4.1,北西,7.1,西北西,5.2,87.3,0.5,1.5,3.5,14
221,2024-01-01T03:40:00,4.3,北西,7.9,北西,5.2,86.7,0.5,1.5,3.5,14
222,2024-01-01T03:41:00,4.3,北西,7.9,北西,5.3,85.3,1,2,4,14.5
223,2024-01-01T03:42:00,4.3,北西,7.9,北西,5.3,85.5,0.5,2,4,14.5
224,2024-01-01T03:43:00,4.2,北西,7.9,北西,5.2,86.4,0.5,2,4,14.5
225,2024-01-01T03:44:00,4.1,北西,7.9,北西,5.2,87.2,0.5,2,4,14.5
226,2024-01-01T03:45:00,3.8,北西,7.9,北西,5.2,87.3,0.5,2,4,14.5
227,2024-01-01T03:46:00,3.6,北西,7.9,北西,5.2,87.7,0.5,2,4,14.5
228,2024-01-01T03:47:00,3.4,北北西,7.9,北西,5.2,87.5,0.5,1.5,4,14.5
229,2024-01-01T03:48:00,3.3,北北西,7.9,北西,5.3,86.7,0.5,1.5,4,14.5
230,2024-01-01T03:49:00,3.2,北北西,7.9,北西,5.3,86.3,0.5,1.5,4,14.5
231,2024-01-01T03:50:00,2.8,北北西,7.1,北西,5.3,86.9,0.5,1.5,4,14.5
232,2024-01-01T03:51:00,2.3,北北西,5.6,北北西,5.2,87.3,0,1.5,4,14.5
233,2024-01-01T03:52:00,2,北北西,5,北西,5.2,87.8,0,1.5,4,14.5
234,2024-01-01T03:53:00,1.8,北北西,3.9,北北西,5.2,88.4,0,1.5,4,14.5
235,2024-01-01T03:54:00,1.7,北,3.9,北北西,5.2,88.5,0,1.5,4,14.5
236,2024-01-01T03:55:00,1.8,北北西,3.9,北北西,5.2,87.5,0,1.5,4,14.5
237,2024-01-01T03:56:00,1.9,北北西,3.9,北北西,5.2,86.5,0,1.5,4,14.5
238,2024-01-01T03:57:00,1.9,北北西,3.9,北北西,5.2,86.1,0,1.5,4,14.5
239,2024-01-01T03:58:00,1.9,北北西,3.9,北西,5.2,86.1,0,1.5,4,14.5
240,2024-01-01T03:59:00,1.9,北西,3.9,北西,5.2,86.5,0,1.5,4,14.5
241,2024-01-01T04:00:00,2,北西,3.9,北西,5.1,87.5,0,1.5,4,14.5
242,2024-01-01T04:01:00,2.2,北西,3.9,北西,5.2,87.4,0,1.5,4,14.5
243,2024-01-01T04:02:00,2.4,北西,3.9,北西,5.3,86.5,0,1.5,4,14.5
244,2024-01-01T04:03:00,2.4,北西,3.9,北西,5.2,87.9,0,1.5,4,14.5
245,2024-01-01T04:04:00,2.3,北西,3.9,北西,5.1,89.4,0,1.5,4,14.5
246,2024-01-01T04:05:00,2.2,北西,3.9,北西,5,90.3,0,1.5,4,14.5
247,2024-01-01T04:06:00,2.1,北北西,3.6,西北西,5,91.5,0,1.5,4,14.5
248,2024-01-01T04:07:00,2.1,北北西,3.6,西北西,5,92.4,0,1.5,4,14.5
249,2024-01-01T04:08:00,2,北,3.6,西北西,5,92.6,0,1.5,4,14.5
250,2024-01-01T04:09:00,2.1,北,3.6,西北西,5,92.6,0,1.5,4,14.5
251,2024-01-01T04:10:00,2.1,北,3.6,西北西,5,92.4,0,1.5,4,14.5
252,2024-01-01T04:11:00,2.1,北北東,3.5,北北東,5,92.3,0,1.5,4,14.5
253,2024-01-01T04:12:00,2,北北東,3.5,北北東,5,92.9,0,1.5,4,14.5
254,2024-01-01T04:13:00,2,北北東,3.5,北北東,5,92.9,0,1.5,4,14.5
255,2024-01-01T04:14:00,2.1,北北東,3.5,北北東,5,92.9,0.5,2,4.5,15
256,2024-01-01T04:15:00,2,北北東,3.5,北北東,5,92.6,0.5,2,4.5,15
257,2024-01-01T04:16:00,2.1,北北東,3.5,北北東,5,93,0.5,2,4.5,15
258,2024-01-01T04:17:00,2,北北東,3.5,北北東,4.9,93.7,0.5,2,4.5,15
259,2024-01-01T04:18:00,2,北北東,3.5,北北東,4.8,94.3,0.5,2,4.5,15
260,2024-01-01T04:19:00,1.9,北,3.4,北北東,4.9,94.7,0.5,2,4.5,15
261,2024-01-01T04:20:00,1.8,北,3,北北東,4.9,95.1,0.5,2,4.5,15
262,2024-01-01T04:21:00,1.8,北,3,北北東,4.8,95.2,0.5,2,4.5,15
263,2024-01-01T04:22:00,1.8,北,3,北北東,4.9,95.3,0.5,2,4.5,15
264,2024-01-01T04:23:00,1.8,北,3,北北東,4.9,95.5,0.5,1.5,4.5,15
265,2024-01-01T04:24:00,1.8,北,3,北北西,4.9,95.4,0,1.5,4.5,15
266,2024-01-01T04:25:00,1.8,北,3.3,北,4.9,95.2,0,1.5,4.5,15
267,2024-01-01T04:26:00,1.9,北,3.3,北,4.9,95.2,0,1.5,4.5,15
268,2024-01-01T04:27:00,1.9,北,3.3,北,4.9,95.1,0,1.5,4.5,15
269,2024-01-01T04:28:00,2,北,3.3,北,4.9,95,0,1.5,4.5,15
270,2024-01-01T04:29:00,2,北,3.3,北,4.9,94.3,0,1.5,4.5,15
271,2024-01-01T04:30:00,1.9,北,3.3,北,5,94.4,0,1.5,4.5,15
272,2024-01-01T04:31:00,1.9,北,3.3,北,5,94.6,0,1.5,4.5,15
273,2024-01-01T04:32:00,2,北,3.3,北,5,94,0,1,4.5,15
274,2024-01-01T04:33:00,1.9,北,3.3,北,5.1,93.6,0,1,4.5,15
275,2024-01-01T04:34:00,1.9,北,3.3,北,5.1,93.6,0,1,4.5,15
276,2024-01-01T04:35:00,2,北,3.2,北,5,93.5,0,1,4.5,15
277,2024-01-01T04:36:00,2,北,3.2,北,5,93.7,0,1,4.5,15
278,2024-01-01T04:37:00,2,北,3.3,北,5,93.9,0,1,4.5,15
279,2024-01-01T04:38:00,2,北,3.3,北,5,93.8,0,1,4.5,15
280,2024-01-01T04:39:00,2,北,3.3,北,5,94.2,0,1,4.5,15
281,2024-01-01T04:40:00,2,北,3.3,北,5,94.7,0,1,4.5,15
282,2024-01-01T04:41:00,2,北,3.3,北,5,94.9,0,0.5,4.5,15
283,2024-01-01T04:42:00,2,北,3.3,北,5,94.9,0,0.5,4.5,15
284,2024-01-01T04:43:00,2.1,北,3.3,北,5,95,0,0.5,4.5,15
285,2024-01-01T04:44:00,2.1,北,3.3,北,5,94.8,0,0.5,4.5,15
286,2024-01-01T04:45:00,2.1,北,3.3,北,5.1,94.5,0,0.5,4.5,15
287,2024-01-01T04:46:00,2,北,3.3,北,5.2,93.1,0,0.5,4.5,15
288,2024-01-01T04:47:00,1.9,北,3.3,北,5.2,93.1,0,0.5,4.5,15
289,2024-01-01T04:48:00,1.9,北,3.3,北,5.2,93.7,0,0.5,4.5,15
290,2024-01-01T04:49:00,1.9,北,3.3,北,5.1,93.9,0,0.5,4.5,15
291,2024-01-01T04:50:00,1.8,北,3.3,北,5.1,94.3,0,0.5,4.5,15
292,2024-01-01T04:51:00,1.6,北,3.3,北,5.1,94.6,0,0.5,4.5,15
293,2024-01-01T04:52:00,1.5,北,3.3,北,5,94.8,0,0.5,4.5,15
294,2024-01-01T04:53:00,1.5,北,3,北北東,5.1,95,0,0.5,4.5,15
295,2024-01-01T04:54:00,1.5,北,3,北北東,5.1,94.7,0,0.5,4.5,15
296,2024-01-01T04:55:00,1.5,北,3,北北東,5,94.7,0,0.5,4.5,15
297,2024-01-01T04:56:00,1.5,北北東,3,北北東,5,95,0,0.5,4.5,15
298,2024-01-01T04:57:00,1.5,北北東,3,北北東,5.1,95.1,0,0.5,4.5,15
299,2024-01-01T04:58:00,1.4,北北東,3,北北東,5.1,95.1,0,0.5,4.5,15
300,2024-01-01T04:59:00,1.4,北,3,北北東,5.1,94.9,0,0.5,4.5,15
301,2024-01-01T05:00:00,1.5,北,3,北北東,5,95,0,0.5,4.5,15
302,2024-01-01T05:01:00,1.6,北,3,北北東,5.1,95.2,0,0.5,4.5,15
303,2024-01-01T05:02:00,1.7,北,3,北北東,5.2,94.6,0,0.5,4.5,15
304,2024-01-01T05:03:00,1.7,北,3,北,5.1,94.6,0,0.5,4.5,15
305,2024-01-01T05:04:00,1.7,北,3,北,5,95,0,0.5,4.5,15
306,2024-01-01T05:05:00,1.7,北,3,北,5,95.4,0.5,1,5,15.5
307,2024-01-01T05:06:00,1.8,北,4.1,北,5,95.7,0.5,1,5,15.5
308,2024-01-01T05:07:00,1.9,北,4.1,北,5,95.8,0.5,1,5,15.5
309,2024-01-01T05:08:00,2.1,北,4.1,北,5,95.7,0.5,1,5,15.5
310,2024-01-01T05:09:00,2.4,北,6.1,北北西,5,95.6,0.5,1,5,15.5
311,2024-01-01T05:10:00,2.6,北,6.1,北北西,5.2,94.4,0.5,1,5,15.5
312,2024-01-01T05:11:00,2.8,北,6.1,北北西,5.4,91.7,0.5,1,5,15.5
313,2024-01-01T05:12:00,2.9,北,6.1,北北西,5.3,92.6,0.5,1,5,15.5
314,2024-01-01T05:13:00,3,北,6.1,北北西,5.2,93.4,1,1.5,5.5,16
315,2024-01-01T05:14:00,3,北北西,6.1,北北西,5.2,92.9,1,1,5.5,16
316,2024-01-01T05:15:00,3,北北西,6.1,北北西,5.2,92.4,0.5,1,5.5,16
317,2024-01-01T05:16:00,2.9,北北西,6.1,北北西,5.3,91.5,0.5,1,5.5,16
318,2024-01-01T05:17:00,2.9,北北西,6.1,北北西,5.2,91.4,0.5,1,5.5,16
319,2024-01-01T05:18:00,2.9,北北西,6.1,北北西,5.2,91.7,0.5,1,5.5,16
320,2024-01-01T05:19:00,2.9,北北西,5.9,北西,5.2,91.5,0.5,1,5.5,16
321,2024-01-01T05:20:00,2.7,北北西,5.1,北,5.3,90.5,0.5,1,5.5,16
322,2024-01-01T05:21:00,2.6,北北西,5.1,北,5.2,90.8,0.5,1,5.5,16
323,2024-01-01T05:22:00,2.4,北北西,5.1,北,5.2,91.2,1,1.5,6,16.5
324,2024-01-01T05:23:00,2.3,北北西,5.1,北,5.2,91.8,0.5,1.5,6,16.5
325,2024-01-01T05:24:00,2.3,北北西,5.1,北,5.2,91,0.5,1.5,6,16.5
326,2024-01-01T05:25:00,2.2,北北西,5.1,北,5.2,90.6,0.5,1.5,6,16.5
327,2024-01-01T05:26:00,2.2,北北西,5.1,北,5.2,90.4,0.5,1.5,6,16.5
328,2024-01-01T05:27:00,2.3,北北西,5.3,北北西,5.2,89.1,0.5,1.5,6,16.5
329,2024-01-01T05:28:00,2.4,北北西,5.3,北北西,5.3,87.3,0.5,1.5,6,16.5
330,2024-01-01T05:29:00,2.3,北北西,5.3,北北西,5.3,85.7,0.5,1.5,6,16.5
331,2024-01-01T05:30:00,2.3,北北西,5.3,北北西,5.3,85.8,0.5,1.5,6,16.5
332,2024-01-01T05:31:00,2.4,北北西,5.3,北北西,5.3,85.9,0.5,1.5,6,16.5
333,2024-01-01T05:32:00,2.6,北西,5.3,北北西,5.3,86.4,0,1.5,6,16.5
334,2024-01-01T05:33:00,2.7,北西,5.3,北北西,5.3,86.1,0,1.5,6,16.5
335,2024-01-01T05:34:00,2.9,北西,5.3,北北西,5.3,86.1,0,1.5,6,16.5
336,2024-01-01T05:35:00,3.1,北西,5.3,北北西,5.3,87.2,0,1.5,6,16.5
337,2024-01-01T05:36:00,3.1,北西,5.3,北北西,5.2,88,0,1.5,6,16.5
338,2024-01-01T05:37:00,2.9,西北西,5,北北西,5.2,87.8,0,1.5,6,16.5
339,2024-01-01T05:38:00,2.8,西北西,4.6,北,5.2,88.3,0,1.5,6,16.5
340,2024-01-01T05:39:00,2.7,西北西,4.1,西北西,5.1,89.6,0,1.5,6,16.5
341,2024-01-01T05:40:00,2.9,西北西,4.4,北西,5.2,88.3,0,1.5,6,16.5
342,2024-01-01T05:41:00,2.9,西北西,4.4,北西,5.2,88.2,0,1.5,6,16.5
343,2024-01-01T05:42:00,2.9,西北西,4.4,北西,5.2,88.6,0,1.5,6,16.5
344,2024-01-01T05:43:00,2.9,西北西,4.8,北西,5.2,88.8,0,1.5,6,16.5
345,2024-01-01T05:44:00,2.8,西北西,4.8,北西,5.1,89,0,1.5,6,16.5
346,2024-01-01T05:45:00,2.7,西北西,4.8,北西,5,89.8,0,1.5,6,16.5
347,2024-01-01T05:46:00,2.7,西北西,4.8,北西,5,90.2,0,1.5,6,16.5
348,2024-01-01T05:47:00,2.6,西北西,4.8,北西,5,90.6,0,1.5,6,16.5
349,2024-01-01T05:48:00,2.5,北西,4.8,北西,5,91.5,0,1.5,6,16.5
350,2024-01-01T05:49:00,2.6,北西,4.8,北西,5,91.4,0,1.5,6,16.5
351,2024-01-01T05:50:00,2.5,北西,4.8,北西,5,91,0,1.5,6,16.5
352,2024-01-01T05:51:00,2.3,北西,4.8,北西,5.1,90.9,0,1.5,6,16.5
353,2024-01-01T05:52:00,2.3,北北西,4.8,北西,5,91.4,0,1.5,6,16.5
354,2024-01-01T05:53:00,2.1,北北西,4.6,北北西,4.9,91.7,0,1.5,6,16.5
355,2024-01-01T05:54:00,2,北,4.6,北北西,4.9,92.2,0,1.5,6,16.5
356,2024-01-01T05:55:00,2,北,4.6,北北西,4.9,92.6,0,1.5,6,16.5
357,2024-01-01T05:56:00,1.9,北北東,4.6,北北西,4.9,93.1,0,1.5,6,16.5
358,2024-01-01T05:57:00,2,北北東,4.6,北北西,4.9,93,0,1.5,6,16.5
359,2024-01-01T05:58:00,1.9,北北東,4,北北西,4.9,93.2,0,1.5,6,16.5
360,2024-01-01T05:59:00,1.8,北北東,3.8,北北東,4.9,93.8,0,1.5,6,16.5
361,2024-01-01T06:00:00,1.8,北東,3.8,北北東,4.9,93.3,0,1.5,6,16.5
362,2024-01-01T06:01:00,1.8,北北東,3.8,北北東,4.9,93.5,0,1.5,6,16.5
363,2024-01-01T06:02:00,1.7,北北東,3.8,北北東,5,93.4,0,1.5,6,16.5
364,2024-01-01T06:03:00,1.6,北北東,3.8,北北東,4.8,93.9,0,1.5,6,16.5
365,2024-01-01T06:04:00,1.6,北北東,3.8,北北東,4.8,94.7,0,1.5,6,16.5
366,2024-01-01T06:05:00,1.6,北,3.8,北北東,4.8,95.2,0,1,6,16.5
367,2024-01-01T06:06:00,1.6,北,3.8,北北東,4.7,95.5,0,1,6,16.5
368,2024-01-01T06:07:00,1.7,北,3.8,北北東,4.7,95.6,0,1,6,16.5
369,2024-01-01T06:08:00,1.7,北,3.8,北北東,4.8,95.6,0,1,6,16.5
370,2024-01-01T06:09:00,1.6,北,3.1,北北東,4.8,95.6,0.5,1.5,6.5,17
371,2024-01-01T06:10:00,1.5,北北西,2.5,北,4.8,95.7,0.5,1.5,6.5,17
372,2024-01-01T06:11:00,1.4,北北西,2.2,北北西,4.8,95.4,0.5,1.5,6.5,17
373,2024-01-01T06:12:00,1.4,北北西,2.2,北北西,4.8,95.3,0.5,1.5,6.5,17
374,2024-01-01T06:13:00,1.5,北北西,2.7,北西,4.8,95.1,0.5,1,6.5,17
375,2024-01-01T06:14:00,1.5,北北西,2.7,北西,4.9,94.1,0.5,1,6.5,17
376,2024-01-01T06:15:00,1.4,北北西,2.7,北西,5,92.8,0.5,1,6.5,17
377,2024-01-01T06:16:00,1.5,北北西,2.8,北西,5.2,90.9,0.5,1,6.5,17
378,2024-01-01T06:17:00,1.5,北西,2.8,北西,5.1,91.3,0.5,1,6.5,17
379,2024-01-01T06:18:00,1.6,北西,3.5,西北西,4.9,92.8,0.5,1,6.5,17
380,2024-01-01T06:19:00,1.9,北西,6.8,北西,5,92.5,0,1,6.5,17
381,2024-01-01T06:20:00,2.3,北西,6.8,北西,5.1,88.9,0.5,1.5,7,17.5
382,2024-01-01T06:21:00,2.6,北西,6.8,北西,5.2,88.3,0.5,1.5,7,17.5
383,2024-01-01T06:22:00,2.8,北西,6.8,北西,5.2,86.9,0.5,1,7,17.5
384,2024-01-01T06:23:00,2.9,西北西,6.8,北西,5.2,86.7,0.5,1,7,17.5
385,2024-01-01T06:24:00,3.1,北西,6.8,北西,5.1,87,0.5,1,7,17.5
386,2024-01-01T06:25:00,3.2,西北西,6.8,北西,5.1,85.9,0.5,1,7,17.5
387,2024-01-01T06:26:00,3.3,西北西,6.8,北西,5.1,86.4,0.5,1,7,17.5
388,2024-01-01T06:27:00,3.3,西北西,6.8,北西,5.1,86.6,0.5,1,7,17.5
389,2024-01-01T06:28:00,3.3,北西,6.8,北西,5,86.7,0.5,1,7,17.5
390,2024-01-01T06:29:00,3.1,西北西,5.7,北西,5,86.7,0.5,1,7,17.5
391,2024-01-01T06:30:00,2.9,西北西,5.7,北西,5.1,85.7,0,1,7,17.5
392,2024-01-01T06:31:00,2.7,西北西,5.3,北北西,5.2,85.6,0,1,7,17.5
393,2024-01-01T06:32:00,2.6,西北西,4.3,北西,5.2,85.6,0,1,7,17.5
394,2024-01-01T06:33:00,2.6,西北西,4.3,北西,5.2,85.4,0,1,7,17.5
395,2024-01-01T06:34:00,2.6,西北西,4.3,北西,5.3,84.8,0,1,7,17.5
396,2024-01-01T06:35:00,2.5,北西,4.3,北西,5.2,85.3,0,1,7,17.5
397,2024-01-01T06:36:00,2.4,北西,3.9,北西,5.1,86.4,0,1,7,17.5
398,2024-01-01T06:37:00,2.4,北西,3.9,北西,5.1,86.8,0.5,1.5,7.5,18
399,2024-01-01T06:38:00,2.5,北西,4.8,北西,4.9,88.6,0.5,1.5,7.5,18
400,2024-01-01T06:39:00,2.6,北西,5,北西,5,88.3,0.5,1.5,7.5,18